{"data":{"norad_id":65402,"epoch":"2026-05-25T03:04:05.943648Z","epoch_age_seconds":59879,"freshness":"FRESH","line1":"1 65402U 25191Z   26145.12784657  .00014747  00000+0  10237-2 0  9990","line2":"2 65402  97.4538  16.5293 0001495  92.5191 267.6208 15.05660876 41771","mean_motion":15.05660876,"eccentricity":0.0001495,"inclination_deg":97.4538,"raan_deg":16.5293,"arg_perigee_deg":92.5191,"mean_anomaly_deg":267.6208,"bstar":0.0010237,"rev_number":4177,"period_min":95.639066070812,"perigee_km":548.44211477661,"apogee_km":550.51347159977,"semimajor_km":6927.6147931882,"source":"CELESTRAK","updated_at":"2026-05-25T13:38:20.798733Z"}}